This demonstration page uses our WeatherBlox Daily Observations layout. Learn more.

Left ArrowRight Arrow

41.86663, -103.66717

Hourly Observations for November 16, 2019

Temp ( °F °C ) Dew Point ( °F °C ) Humidity (%) Winds ( mph kmh ) Pressure ( in mb ) Visibility ( mi km ) Precip ( " mm )
12:53 am 00:53 Clear 32 0 27 -2.8 82 82 Calm 29.95 1014 10 16 0.00 0.00
1:53 am 01:53 Clear 32 0 27 -2.8 82 82 NNE 3 6 29.94 1014 10 16 0.00 0.00
2:53 am 02:53 Clear 32 0 27 -2.8 82 82 NNW 6 9 29.93 1014 10 16 0.00 0.00
3:53 am 03:53 Clear 31 -0.6 26 -3.3 82 82 N 5 7 29.93 1014 10 16 0.00 0.00
4:53 am 04:53 Clear 39 3.9 28 -2.2 65 65 Calm 29.95 1014 10 16 0.00 0.00
5:53 am 05:53 Mostly Clear 37 2.8 30 -1.1 76 76 Calm 29.97 1015 10 16 0.00 0.00
6:53 am 06:53 Sunny 40 4.4 29 -1.7 65 65 N 3 6 29.98 1015 10 16 0.00 0.00
7:53 am 07:53 Partly Cloudy 44 6.7 31 -0.6 60 60 WNW 6 9 29.99 1016 10 16 0.00 0.00
8:53 am 08:53 Sunny 48 8.9 32 0 54 54 WNW 10 17 30.00 1016 10 16 0.00 0.00
9:53 am 09:53 Mostly Cloudy 59 15 35 1.7 41 41 NW 17 28 30.00 1016 10 16 0.00 0.00
10:53 am 10:53 Cloudy 57 13.9 36 2.2 45 45 NNW 12 19 30.01 1016 10 16 0.00 0.00
11:53 am 11:53 Mostly Cloudy 58 14.4 33 0.6 39 39 NW 9 15 30.00 1016 10 16 0.00 0.00
12:53 pm 12:53 Cloudy 60 15.6 37 2.8 42 42 WNW 6 9 29.98 1015 10 16 0.00 0.00
1:53 pm 13:53 Cloudy 53 11.7 38 3.3 57 57 N 21 33 30.03 1017 10 16 0.00 0.00
2:53 pm 14:53 Cloudy with Light Rain 45 7.2 38 3.3 77 77 NNW 23 37 30.11 1020 10 16 0.00 0.00
3:53 pm 15:53 Cloudy with Light Rain 42 5.6 38 3.3 85 85 NW 21 33 30.17 1022 10 16 0.00 0.00
4:53 pm 16:53 Cloudy 42 5.6 37 2.8 82 82 WNW 9 15 30.17 1022 10 16 0.00 0.00
5:53 pm 17:53 Cloudy 41 5 37 2.8 86 86 W 13 20 30.22 1023 10 16 0.00 0.00
6:53 pm 18:53 Mostly Clear 38 3.3 36 2.2 93 93 WNW 10 17 30.22 1024 10 16 0.00 0.00
7:53 pm 19:53 Mostly Clear 38 3.3 35 1.7 89 89 WNW 12 19 30.22 1023 10 16 0.00 0.00
8:53 pm 20:53 Clear 36 2.2 34 1.1 93 93 WNW 10 17 30.22 1023 10 16 0.00 0.00
9:53 pm 21:53 Clear 34 1.1 33 0.6 97 97 WNW 13 20 30.19 1023 10 16 0.00 0.00
10:53 pm 22:53 Clear 33 0.6 32 0 96 96 WNW 12 19 30.21 1023 10 16 0.00 0.00
11:53 pm 23:53 Clear 31 -0.6 29 -1.7 92 92 NW 5 7 30.22 1023 10 16 0.00 0.00

Powered by AerisWeather